TimeAKDT,TemperatureF,Dew PointF,Humidity,Sea Level PressureIn,VisibilityMPH,Wind Direction,Wind SpeedMPH,Gust SpeedMPH,PrecipitationIn,Events,Conditions,WindDirDegrees,DateUTC
12:16 AM,64.4,48.2,56,29.84,10.0,Calm,Calm,-,N/A,,Clear,0,2013-06-18 08:16:00
12:36 AM,62.6,48.2,59,29.84,10.0,Calm,Calm,-,N/A,,Clear,0,2013-06-18 08:36:00
12:56 AM,60.8,46.4,59,29.84,10.0,Calm,Calm,-,N/A,,Clear,0,2013-06-18 08:56:00
1:16 AM,60.8,46.4,59,29.84,10.0,Calm,Calm,-,N/A,,Clear,0,2013-06-18 09:16:00
1:36 AM,59.0,46.4,63,29.84,10.0,West,4.6,-,N/A,,Clear,260,2013-06-18 09:36:00
1:56 AM,60.8,46.4,59,29.84,10.0,West,3.5,-,N/A,,Clear,270,2013-06-18 09:56:00
2:16 AM,57.2,46.4,67,29.83,10.0,West,5.8,-,N/A,,Clear,260,2013-06-18 10:16:00
2:36 AM,57.2,46.4,67,29.84,10.0,West,3.5,-,N/A,,Clear,260,2013-06-18 10:36:00
2:56 AM,55.4,44.6,67,29.85,10.0,Calm,Calm,-,N/A,,Clear,0,2013-06-18 10:56:00
3:16 AM,53.6,46.4,77,29.84,10.0,Calm,Calm,-,N/A,,Clear,0,2013-06-18 11:16:00
3:36 AM,51.8,42.8,71,29.84,10.0,Calm,Calm,-,N/A,,Clear,0,2013-06-18 11:36:00
3:56 AM,51.8,42.8,71,29.84,10.0,Calm,Calm,-,N/A,,Clear,0,2013-06-18 11:56:00
4:16 AM,51.8,42.8,71,29.84,10.0,Calm,Calm,-,N/A,,Clear,0,2013-06-18 12:16:00
4:36 AM,50.0,44.6,82,29.84,10.0,Calm,Calm,-,N/A,,Clear,0,2013-06-18 12:36:00
4:56 AM,50.0,44.6,82,29.84,10.0,Calm,Calm,-,N/A,,Clear,0,2013-06-18 12:56:00
5:16 AM,50.0,42.8,76,29.84,10.0,Calm,Calm,-,N/A,,Clear,0,2013-06-18 13:16:00
5:36 AM,48.2,42.8,82,29.83,10.0,SE,6.9,-,N/A,,Clear,130,2013-06-18 13:36:00
5:56 AM,51.8,44.6,76,29.84,10.0,Calm,Calm,-,N/A,,Clear,0,2013-06-18 13:56:00
6:16 AM,51.8,44.6,76,29.83,10.0,Calm,Calm,-,N/A,,Clear,0,2013-06-18 14:16:00
6:36 AM,53.6,46.4,77,29.83,10.0,NE,3.5,-,N/A,,Clear,50,2013-06-18 14:36:00
6:56 AM,53.6,46.4,77,29.82,10.0,North,4.6,-,N/A,,Clear,360,2013-06-18 14:56:00
7:16 AM,55.4,46.4,72,29.82,10.0,Calm,Calm,-,N/A,,Clear,0,2013-06-18 15:16:00
7:36 AM,55.4,48.2,77,29.82,10.0,Calm,Calm,-,N/A,,Clear,0,2013-06-18 15:36:00
7:56 AM,60.8,50.0,68,29.82,10.0,Calm,Calm,-,N/A,,Clear,0,2013-06-18 15:56:00
8:16 AM,64.4,50.0,59,29.81,10.0,Calm,Calm,-,N/A,,Clear,0,2013-06-18 16:16:00
8:36 AM,64.4,50.0,59,29.81,10.0,Calm,Calm,-,N/A,,Clear,0,2013-06-18 16:36:00
8:56 AM,64.4,51.8,64,29.81,10.0,NW,5.8,-,N/A,,Clear,320,2013-06-18 16:56:00
9:16 AM,66.2,50.0,56,29.82,10.0,WNW,6.9,-,N/A,,Clear,290,2013-06-18 17:16:00
9:36 AM,66.2,51.8,60,29.81,10.0,WSW,8.1,-,N/A,,Clear,250,2013-06-18 17:36:00
9:56 AM,68.0,51.8,56,29.80,10.0,West,6.9,-,N/A,,Clear,280,2013-06-18 17:56:00
10:16 AM,69.8,50.0,49,29.80,10.0,SW,5.8,-,N/A,,Clear,220,2013-06-18 18:16:00
10:36 AM,71.6,51.8,50,29.79,10.0,West,6.9,-,N/A,,Clear,260,2013-06-18 18:36:00
10:56 AM,71.6,51.8,50,29.79,10.0,WNW,6.9,-,N/A,,Clear,300,2013-06-18 18:56:00
11:16 AM,71.6,51.8,50,29.79,10.0,WNW,13.8,-,N/A,,Clear,290,2013-06-18 19:16:00
11:36 AM,69.8,50.0,49,29.79,10.0,West,13.8,-,N/A,,Clear,280,2013-06-18 19:36:00
11:56 AM,69.8,50.0,49,29.79,10.0,West,9.2,-,N/A,,Clear,270,2013-06-18 19:56:00
12:16 PM,69.8,50.0,49,29.79,10.0,WSW,9.2,-,N/A,,Clear,240,2013-06-18 20:16:00
12:36 PM,69.8,51.8,53,29.79,10.0,West,12.7,-,N/A,,Clear,280,2013-06-18 20:36:00
12:56 PM,69.8,50.0,49,29.79,10.0,West,12.7,-,N/A,,Clear,280,2013-06-18 20:56:00
1:16 PM,69.8,50.0,49,29.79,10.0,West,13.8,-,N/A,,Clear,280,2013-06-18 21:16:00
1:36 PM,71.6,50.0,46,29.79,10.0,SW,10.4,17.3,N/A,,Clear,230,2013-06-18 21:36:00
1:56 PM,71.6,48.2,43,29.80,10.0,WSW,9.2,-,N/A,,Clear,250,2013-06-18 21:56:00
2:16 PM,71.6,48.2,43,29.80,10.0,West,8.1,-,N/A,,Clear,280,2013-06-18 22:16:00
2:36 PM,69.8,48.2,46,29.79,10.0,WNW,9.2,-,N/A,,Clear,290,2013-06-18 22:36:00
2:56 PM,71.6,50.0,46,29.79,10.0,WNW,9.2,-,N/A,,Clear,290,2013-06-18 22:56:00
3:16 PM,71.6,51.8,50,29.79,10.0,WSW,11.5,-,N/A,,Clear,240,2013-06-18 23:16:00
3:36 PM,73.4,50.0,44,29.79,10.0,WSW,10.4,-,N/A,,Clear,250,2013-06-18 23:36:00
3:56 PM,73.4,50.0,44,29.79,10.0,West,8.1,-,N/A,,Clear,270,2013-06-18 23:56:00
4:16 PM,73.4,50.0,44,29.80,10.0,WSW,10.4,-,N/A,,Clear,250,2013-06-19 00:16:00
4:36 PM,75.2,46.4,36,29.80,10.0,South,11.5,16.1,N/A,,Clear,190,2013-06-19 00:36:00
4:56 PM,75.2,46.4,36,29.80,10.0,West,12.7,17.3,N/A,,Clear,260,2013-06-19 00:56:00
5:16 PM,71.6,48.2,43,29.80,10.0,West,15.0,-,N/A,,Clear,280,2013-06-19 01:16:00
5:36 PM,68.0,48.2,49,29.81,10.0,WNW,13.8,-,N/A,,Clear,290,2013-06-19 01:36:00
5:56 PM,68.0,48.2,49,29.82,10.0,WNW,12.7,-,N/A,,Clear,300,2013-06-19 01:56:00
6:16 PM,69.8,48.2,46,29.82,10.0,West,13.8,-,N/A,,Clear,280,2013-06-19 02:16:00
6:36 PM,69.8,48.2,46,29.83,10.0,WNW,13.8,-,N/A,,Clear,290,2013-06-19 02:36:00
6:56 PM,69.8,48.2,46,29.83,10.0,WSW,10.4,16.1,N/A,,Clear,240,2013-06-19 02:56:00
7:16 PM,69.8,48.2,46,29.83,10.0,WSW,10.4,-,N/A,,Clear,240,2013-06-19 03:16:00
7:36 PM,69.8,46.4,43,29.83,10.0,WSW,10.4,-,N/A,,Clear,240,2013-06-19 03:36:00
7:56 PM,69.8,46.4,43,29.83,10.0,SW,9.2,-,N/A,,Clear,220,2013-06-19 03:56:00
8:16 PM,69.8,48.2,46,29.83,10.0,West,11.5,-,N/A,,Clear,270,2013-06-19 04:16:00
8:36 PM,66.2,46.4,49,29.84,10.0,West,10.4,-,N/A,,Clear,260,2013-06-19 04:36:00
8:56 PM,66.2,46.4,49,29.84,10.0,SW,9.2,-,N/A,,Clear,230,2013-06-19 04:56:00
9:16 PM,66.2,46.4,49,29.86,10.0,West,6.9,-,N/A,,Clear,260,2013-06-19 05:16:00
9:36 PM,66.2,44.6,46,29.87,10.0,NNW,4.6,-,N/A,,Clear,330,2013-06-19 05:36:00
9:56 PM,64.4,46.4,52,29.87,10.0,SW,6.9,-,N/A,,Partly Cloudy,230,2013-06-19 05:56:00
10:16 PM,64.4,44.6,49,29.88,10.0,SW,9.2,-,N/A,,Scattered Clouds,230,2013-06-19 06:16:00
10:36 PM,62.6,41.0,45,29.88,10.0,SW,9.2,17.3,N/A,,Clear,220,2013-06-19 06:36:00
10:56 PM,62.6,39.2,42,29.89,10.0,South,9.2,17.3,N/A,,Scattered Clouds,180,2013-06-19 06:56:00
11:16 PM,60.8,39.2,45,29.90,10.0,SSW,8.1,-,N/A,,Mostly Cloudy,200,2013-06-19 07:16:00
11:36 PM,60.8,39.2,45,29.91,10.0,SSE,4.6,-,N/A,,Partly Cloudy,150,2013-06-19 07:36:00
11:56 PM,57.2,39.2,51,29.92,10.0,South,5.8,-,N/A,,Clear,180,2013-06-19 07:56:00